Zurück zum Katalog

STARLINK-32308

AktivKommunikationVLEO
NORAD 61663·PAYLOAD·🇺🇸 United States

Gestartet Oct 26, 2024 von Cape Canaveral Space Force Station

Loading…

Nächste Überflüge (nächste 24 Stunden)

TLE

AktuellSource: CelesTrak SupGP

Epoche: Sep 14, 2026, 22:21 UTC

1 61663C 24193C   26257.93173611  .00049992  00000+0  14773-2 0  2577
2 61663  53.1584 287.7061 0001180  91.5122 170.7644 15.34358913    13

Verfolge STARLINK-32308 in Echtzeit mit AllMySat

Download on the App Store